Southport, NC

1:35 PM EST on November 21, 2017 (GMT -0500)
Brunswick County

Weather History for KSUT - January, 2014

Change the Weather History Date:

Tuesday, January 14, 2014

  Actual Average (KILM) Record (KILM)
Temperature  
Mean Temperature 52 °F -  
Max Temperature 60 °F 55 °F 78 °F (1932)
Min Temperature 42 °F 32 °F 15 °F (1893)
Degree Days  
Heating Degree Days 14    
Growing Degree Days 2 (Base 50)    
Moisture  
Dew Point 54 °F    
Average Humidity 94    
Maximum Humidity 100    
Minimum Humidity 78    
Precipitation  
Precipitation 0.27 in - - ()
Sea Level Pressure  
Sea Level Pressure 29.90 in    
Wind  
Wind Speed 4 mph (WSW)    
Max Wind Speed 17 mph    
Max Gust Speed 25 mph    
Visibility 7 miles    
Events Fog , Rain    
Averages and records for this station are not official NWS values.
T = Trace of Precipitation, MM = Missing Value Source: NWS Daily Summary

Daily Weather History Graph

Daily Weather History Graph

Search for Another Location

Airport or City:

Trip Planner

Search our weather history database for the weather conditions in past years. The results will help you decide how hot, cold, wet, or windy it might be!

Date:

Astronomy

Jan. 14, 2014 Rise Set
Actual Time 7:17 AM EST 5:25 PM EST
Civil Twilight 6:50 AM EST 5:52 PM EST
Nautical Twilight 6:19 AM EST 6:23 PM EST
Astronomical Twilight 5:49 AM EST 6:53 PM EST
Moon 4:27 PM EST (1/14) 5:51 AM EST (1/14)
Length of Visible Light 11h 02m
Length of Day
10h 07m
Waxing Gibbous, 98% of the Moon is Illuminated
Jan 14
Waxing Gibbous
Jan 15
Full
Jan 24
Last Quarter
Jan 30
New
Feb 6
First Quarter

Hourly Weather History & Observations

Time (EST) Temp. Windchill Dew Point Humidity Pressure Visibility Wind Dir Wind Speed Gust Speed Precip Events Conditions
12:15 AM 60.8 °F - 53.8 °F 78% 29.98 in 10.0 mi SSW 3.5 mph - N/A   Scattered Clouds
12:35 AM 60.3 °F - 53.6 °F 79% 29.97 in 10.0 mi SSW 3.5 mph - N/A   Mostly Cloudy
12:55 AM 60.3 °F - 53.2 °F 78% 29.96 in 10.0 mi South 3.5 mph - N/A   Scattered Clouds
1:15 AM 59.2 °F - 53.4 °F 81% 29.95 in 10.0 mi Calm Calm - N/A   Clear
1:35 AM 57.9 °F - 53.2 °F 84% 29.93 in 10.0 mi Calm Calm - N/A   Scattered Clouds
1:55 AM 56.7 °F - 53.1 °F 88% 29.93 in 10.0 mi Calm Calm - N/A   Mostly Cloudy
2:15 AM 57.2 °F - 53.4 °F 87% 29.93 in 10.0 mi Calm Calm - N/A   Mostly Cloudy
2:35 AM 56.5 °F - 53.1 °F 88% 29.92 in 10.0 mi Calm Calm - N/A   Scattered Clouds
2:55 AM 55.9 °F - 53.2 °F 91% 29.91 in 10.0 mi SE 3.5 mph - N/A   Mostly Cloudy
3:15 AM 57.2 °F - 53.8 °F 88% 29.91 in 10.0 mi Calm Calm - N/A   Mostly Cloudy
3:35 AM 56.3 °F - 53.6 °F 91% 29.90 in 10.0 mi Calm Calm - N/A   Overcast
3:55 AM 56.3 °F - 54.0 °F 92% 29.90 in 10.0 mi Calm Calm - N/A   Overcast
4:15 AM 55.8 °F - 54.0 °F 94% 29.90 in 10.0 mi NW 3.5 mph - N/A   Light Drizzle
4:35 AM 56.3 °F - 54.1 °F 92% 29.89 in 10.0 mi Calm Calm - N/A Rain Light Rain
4:55 AM 56.3 °F - 54.1 °F 92% 29.88 in 10.0 mi Calm Calm - N/A   Drizzle
5:15 AM 55.9 °F - 54.5 °F 95% 29.88 in 10.0 mi Calm Calm - N/A Rain Light Rain
5:35 AM 55.8 °F - 54.9 °F 97% 29.86 in 7.0 mi Calm Calm - 0.01 in Rain Rain
5:55 AM 55.9 °F - 54.9 °F 96% 29.85 in 10.0 mi ESE 3.5 mph - 0.01 in   Drizzle
6:15 AM 55.9 °F - 54.7 °F 96% 29.85 in 10.0 mi ESE 3.5 mph - 0.01 in Rain Light Rain
6:35 AM 56.3 °F - 54.5 °F 94% 29.84 in 10.0 mi ESE 3.5 mph - 0.01 in   Light Drizzle
6:55 AM 56.3 °F - 54.9 °F 95% 29.84 in 7.0 mi ESE 4.6 mph - 0.02 in Rain Rain
7:15 AM 57.2 °F - 55.8 °F 95% 29.84 in 7.0 mi ESE 3.5 mph - 0.02 in Rain Light Rain
7:35 AM 56.3 °F - 55.4 °F 97% 29.86 in 2.5 mi Calm Calm - 0.08 in Rain Rain
7:55 AM 58.1 °F - 57.4 °F 97% 29.85 in 5.0 mi SSE 4.6 mph - 0.11 in Rain Light Rain
8:15 AM 60.1 °F - 59.4 °F 97% 29.85 in 5.0 mi South 5.8 mph - 0.01 in Rain Light Rain
8:35 AM 60.4 °F - 59.5 °F 97% 29.85 in 5.0 mi SSE 4.6 mph - 0.02 in Rain Light Rain
8:55 AM 60.3 °F - 59.5 °F 97% 29.86 in 5.0 mi South 5.8 mph - 0.02 in   Overcast
9:15 AM 60.8 °F - 59.9 °F 97% 29.88 in 5.0 mi SSW 6.9 mph - N/A   Drizzle
9:35 AM 60.1 °F - 59.4 °F 97% 29.86 in 4.0 mi SSW 4.6 mph - N/A   Light Drizzle
9:55 AM 60.1 °F - 59.2 °F 97% 29.86 in 7.0 mi South 6.9 mph - N/A Rain Rain
10:15 AM 60.1 °F - 58.8 °F 96% 29.86 in 7.0 mi South 9.2 mph - N/A   Drizzle
10:35 AM 60.1 °F - 58.1 °F 93% 29.87 in 10.0 mi SSW 8.1 mph - N/A   Drizzle
10:55 AM 59.5 °F - 58.1 °F 95% 29.86 in 7.0 mi SW 9.2 mph - 0.01 in Rain Light Rain
11:15 AM 58.6 °F - 57.4 °F 96% 29.87 in 7.0 mi SW 11.5 mph 18.4 mph 0.01 in Rain Light Rain
11:35 AM 58.1 °F - 57.2 °F 97% 29.86 in 5.0 mi SW 11.5 mph 18.4 mph 0.02 in   Drizzle
11:55 AM 57.9 °F - 56.8 °F 96% 29.84 in 4.0 mi SW 10.4 mph - 0.03 in Rain Light Rain
12:15 PM 58.1 °F - 57.0 °F 96% 29.83 in 5.0 mi SW 9.2 mph - 0.01 in Rain Light Rain
12:35 PM 58.3 °F - 57.2 °F 96% 29.83 in 4.0 mi SW 11.5 mph 17.3 mph 0.03 in Rain Light Rain
12:55 PM 58.5 °F - 57.6 °F 97% 29.81 in 4.0 mi SW 10.4 mph - 0.04 in Rain Light Rain
1:15 PM 58.5 °F - 57.6 °F 97% 29.81 in 4.0 mi SW 10.4 mph 16.1 mph 0.01 in Rain Rain
1:35 PM 58.5 °F - 57.6 °F 97% 29.82 in 4.0 mi SW 12.7 mph 18.4 mph 0.02 in Rain Rain
1:55 PM 57.4 °F - 56.7 °F 97% 29.82 in 2.0 mi WSW 15.0 mph 21.9 mph 0.03 in Rain Rain
2:15 PM 57.0 °F - 56.3 °F 97% 29.82 in 4.0 mi WSW 17.3 mph 25.3 mph N/A   Light Drizzle
2:35 PM 56.7 °F - 55.8 °F 97% 29.84 in 7.0 mi West 9.2 mph - N/A Rain Light Rain
2:55 PM 57.6 °F - 56.5 °F 96% 29.85 in 7.0 mi West 9.2 mph - N/A Rain Rain
3:15 PM 58.3 °F - 56.8 °F 95% 29.85 in 7.0 mi NW 3.5 mph - N/A Rain Light Rain
3:35 PM 57.9 °F - 55.9 °F 93% 29.85 in 10.0 mi Calm Calm - N/A   Overcast
3:55 PM 57.9 °F - 56.1 °F 94% 29.86 in 10.0 mi NW 4.6 mph - N/A   Overcast
4:15 PM 58.1 °F - 55.9 °F 93% 29.88 in 10.0 mi WNW 10.4 mph - N/A   Overcast
4:35 PM 57.7 °F - 55.0 °F 91% 29.89 in 10.0 mi WNW 10.4 mph 18.4 mph N/A   Overcast
4:55 PM 57.2 °F - 53.6 °F 88% 29.90 in 10.0 mi WNW 10.4 mph 16.1 mph N/A   Overcast
5:15 PM 56.3 °F - 53.6 °F 91% 29.90 in 10.0 mi WNW 6.9 mph - N/A   Scattered Clouds
5:35 PM 55.4 °F - 52.3 °F 89% 29.90 in 10.0 mi NW 6.9 mph - N/A   Clear
5:55 PM 54.5 °F - 52.2 °F 92% 29.91 in 10.0 mi WNW 5.8 mph - N/A   Clear
6:15 PM 53.2 °F - 51.8 °F 95% 29.92 in 10.0 mi NW 4.6 mph - N/A   Scattered Clouds
6:35 PM 53.1 °F - 51.8 °F 95% 29.93 in 10.0 mi NW 4.6 mph - N/A   Scattered Clouds
6:55 PM 52.2 °F - 50.9 °F 95% 29.95 in 10.0 mi Calm Calm - N/A   Clear
7:15 PM 51.3 °F - 50.4 °F 97% 29.96 in 10.0 mi NW 3.5 mph - N/A   Clear
7:35 PM 50.2 °F - 49.5 °F 97% 29.97 in 10.0 mi NW 4.6 mph - N/A   Clear
7:55 PM 51.1 °F - 50.4 °F 97% 29.98 in 10.0 mi Calm Calm - N/A   Clear
8:15 PM 50.0 °F - 49.1 °F 97% 29.98 in 10.0 mi Calm Calm - N/A   Clear
8:35 PM 49.8 °F - 49.1 °F 97% 29.98 in 10.0 mi Calm Calm - N/A   Clear
8:55 PM 46.9 °F - 46.6 °F 99% 29.99 in 0.8 mi Calm Calm - N/A   Mist
9:15 PM 46.0 °F - 45.7 °F 99% 30.00 in 0.5 mi Calm Calm - N/A Fog Fog
9:35 PM 44.8 °F - 44.6 °F 99% 30.01 in 0.5 mi Calm Calm - N/A Fog Fog
9:55 PM 44.6 °F 43.1 °F 44.4 °F 99% 30.01 in 3.0 mi NW 3.5 mph - N/A   Clear
10:15 PM 45.3 °F - 45.1 °F 99% 30.02 in 1.8 mi Calm Calm - N/A   Mist
10:35 PM 43.7 °F 42.1 °F 43.7 °F 100% 30.01 in 0.8 mi NW 3.5 mph - N/A   Mist
10:55 PM 45.1 °F - 45.0 °F 99% 30.00 in 4.0 mi Calm Calm - N/A   Clear
11:15 PM 43.3 °F - 43.2 °F 99% 30.01 in 2.0 mi Calm Calm - N/A   Clear
11:35 PM 43.0 °F - 42.8 °F 99% 30.01 in 4.0 mi Calm Calm - N/A   Clear
11:55 PM 42.3 °F - 42.1 °F 99% 30.00 in 0.8 mi Calm Calm - N/A   Mostly Cloudy